[[{"header":{"parameterUnit":"m.s-1","parameterCategory":1,"la1":30.2991,"la2":30.254,"lo1":-89.0895,"lo2":-89.0444,"dy":0.0017,"dx":0.0017,"nx":28,"ny":28,"refTime":"2025-06-04T09:00:00:Z","depth":0,"parameterNumber":2,"parameterNumberName":"U-component_of_WINDS"},"data":[0,0,0,0,0,0,0,0,0,0,0,0,0,0,0,0,0,0,0,0,0,0,0,0,0,0,0,0,0,0,0,0,0,0,0,0,0,0,0,0,0,0,0,0,0,0,0,0,0,0,0,0,0,0,0,0,0,0,-2.8242,-2.8244,0,-2.8389,-2.8391,-2.8392,-2.8449,-2.8448,-2.8448,-2.8448,-2.8596,-2.86,-2.8605,0,0,0,0,0,0,0,0,0,0,0,0,0,-2.801,-2.8014,-2.8242,-2.8244,-2.8246,-2.8389,-2.8391,-2.8393,-2.8449,-2.8448,-2.8448,-2.8447,-2.8595,-2.86,-2.8605,0,0,0,0,0,0,0,0,0,0,0,0,0,-2.8129,-2.8015,-2.8242,-2.8291,-2.8297,-2.8388,-2.8391,-2.8393,-2.8449,-2.8448,-2.8448,-2.8447,-2.8593,-2.8599,-2.8606,-2.8658,0,0,-2.8626,-2.8628,0,0,0,0,0,0,0,0,-2.8122,-2.8137,-2.8282,-2.8288,-2.8295,-2.84,-2.8363,-2.8482,-2.8449,-2.8391,-2.8448,-2.8447,-2.8531,-2.8543,-2.8572,-2.8665,-2.8671,-2.8626,-2.863,-2.8633,-2.8635,0,0,0,0,0,0,0,-2.8114,-2.8131,-2.83,-2.8284,-2.8292,-2.8306,-2.8322,-2.8386,-2.8463,-2.8396,-2.8401,-2.8417,-2.8535,-2.8565,-2.8575,-2.8674,-2.8626,-2.8632,-2.8636,-2.8638,-2.8818,-2.8819,0,0,0,0,0,0,-2.8097,-2.8124,-2.8295,-2.8304,-2.8205,-2.831,-2.8328,-2.8367,-2.8462,-2.8476,-2.8418,-2.8419,-2.8554,-2.8568,-2.8581,-2.8649,-2.8633,-2.8639,-2.8643,-2.8817,-2.8818,-2.8819,0,0,0,0,0,0,-2.8092,-2.8112,-2.829,-2.8216,-2.8239,-2.8315,-2.8357,-2.837,-2.8401,-2.8479,-2.8492,-2.8435,-2.8554,-2.8572,-2.8639,-2.8655,-2.8642,-2.8648,-2.8816,-2.8818,-2.8819,-2.8784,0,0,0,0,0,0,-2.8085,-2.811,-2.8131,-2.8216,-2.8243,-2.8345,-2.8358,-2.8373,-2.8412,-2.8416,-2.8498,-2.8512,-2.8555,-2.8629,-2.8645,-2.8663,-2.8653,-2.8815,-2.8817,-2.8818,-2.8784,-2.8784,-2.8784,0,0,0,0,0,-2.8077,-2.8115,-2.8131,-2.8152,-2.8271,-2.8346,-2.8361,-2.8411,-2.8413,-2.8434,-2.8485,-2.8509,-2.865,-2.8635,-2.8654,-2.8674,-2.8814,-2.8816,-2.8818,-2.8784,-2.8784,-2.8784,0,0,0,0,0,0,-2.8029,-2.8127,-2.8146,-2.8213,-2.8271,-2.8355,-2.8384,-2.841,-2.8468,-2.8469,-2.8528,-2.8546,-2.8608,-2.8648,-2.8629,-2.8731,-2.8734,-2.874,-2.8702,-2.8703,-2.8702,-2.8691,-2.8658,0,0,0,0,0,-2.8026,-2.808,-2.8162,-2.8213,-2.8241,-2.8307,-2.8342,-2.8376,-2.8438,-2.8462,-2.8517,-2.8576,-2.8634,-2.8671,-2.8728,-2.8791,-2.881,-2.8814,-2.8814,-2.8814,-2.8818,-2.8854,-2.8857,-2.8826,-2.8826,-2.8826,0,0,-2.8021,-2.8081,-2.8111,-2.8205,-2.8254,-2.8307,-2.8327,-2.8383,-2.8423,-2.847,-2.8537,-2.858,-2.8649,-2.8714,-2.8746,-2.875,-2.8831,-2.8816,-2.8815,-2.882,-2.8857,-2.886,-2.8862,-2.8827,-2.8827,-2.8827,0,0,-2.8039,-2.809,-2.8138,-2.8187,-2.826,-2.8304,-2.8316,-2.8397,-2.8427,-2.8495,-2.8532,-2.858,-2.8679,-2.8727,-2.8764,-2.8801,-2.8826,-2.8818,-2.8818,-2.8853,-2.8855,-2.8858,-2.887,-2.8874,-2.8822,-2.8822,-2.8822,0,-2.8023,-2.8106,-2.8159,-2.8213,-2.8253,-2.83,-2.8348,-2.8393,-2.8481,-2.8508,-2.8511,-2.8636,-2.8686,-2.8763,-2.8772,-2.8801,-2.8816,-2.8809,-2.885,-2.8853,-2.8857,-2.887,-2.8874,-2.8821,-2.8821,-2.8821,-2.8821,0,-2.8082,-2.8139,-2.8169,-2.8254,-2.8297,-2.8348,-2.841,-2.8447,-2.8478,-2.8521,-2.859,-2.8652,-2.8723,-2.8744,-2.8774,-2.8826,-2.8826,-2.8839,-2.8844,-2.8857,-2.887,-2.8876,-2.8819,-2.8819,-2.882,-2.882,0,0,-2.8073,-2.8188,-2.8198,-2.8237,-2.8322,-2.8367,-2.842,-2.849,-2.8521,-2.8581,-2.8627,-2.871,-2.8723,-2.8765,-2.8801,-2.8832,-2.8857,-2.8841,-2.8844,-2.8842,-2.8918,-2.8907,-2.8912,-2.8874,-2.8875,-2.8876,-2.8912,0,-2.8102,-2.82,-2.825,-2.8326,-2.8379,-2.8424,-2.847,-2.8527,-2.857,-2.8621,-2.8667,-2.8725,-2.8738,-2.8764,-2.8796,-2.8847,-2.8873,-2.8845,-2.8917,-2.8919,-2.8897,-2.8919,-2.8907,-2.8938,-2.8917,-2.8918,-2.8919,0,-2.8148,-2.8208,-2.8289,-2.8369,-2.8393,-2.8434,-2.8502,-2.8551,-2.8616,-2.8645,-2.8693,-2.8728,-2.8786,-2.8787,-2.8867,-2.8847,-2.888,-2.8909,-2.8912,-2.892,-2.8919,-2.8926,-2.8949,-2.8953,-2.8928,-2.8927,-2.8926,0,-2.8133,-2.8234,-2.8296,-2.8328,-2.8422,-2.845,-2.849,-2.8556,-2.8595,-2.8655,-2.8681,-2.8746,-2.8782,-2.8832,-2.8884,-2.888,-2.8959,-2.8964,-2.8984,-2.8983,-2.8998,-2.8996,-2.9025,-2.902,-2.902,-2.902,-2.902,0,-2.8159,-2.8207,-2.829,-2.8328,-2.8383,-2.844,-2.8493,-2.8537,-2.8595,-2.8642,-2.8685,-2.8728,-2.8795,-2.8847,-2.8888,-2.8948,-2.8964,-2.8988,-2.8999,-2.8984,-2.8981,-2.9006,-2.9005,-2.9021,-2.9021,-2.9021,-2.902,0,-2.8151,-2.8209,-2.8279,-2.8363,-2.8385,-2.8422,-2.8493,-2.8532,-2.8577,-2.8636,-2.8653,-2.8723,-2.8786,-2.8844,-2.8927,-2.8955,-2.9016,-2.9029,-2.8994,-2.8999,-2.9016,-2.9013,-2.9061,-2.907,-2.9059,-2.9059,-2.9059,0,-2.8164,-2.8202,-2.829,-2.8325,-2.8365,-2.842,-2.846,-2.8519,-2.8559,-2.8637,-2.8666,-2.8732,-2.8788,-2.8887,-2.8945,-2.901,-2.9025,-2.9037,-2.9034,-2.9019,-2.9024,-2.9021,-2.9025,-2.9036,-2.9036,-2.9036,-2.9035,0,-2.818,-2.8207,-2.8264,-2.833,-2.8377,-2.8432,-2.8489,-2.8515,-2.8584,-2.8627,-2.8692,-2.8736,-2.8821,-2.8887,-2.8958,-2.8999,-2.9029,-2.9036,-2.9044,-2.9029,-2.9007,-2.9019,-2.8992,-2.9034,-2.9034,-2.9035,-2.9035,-2.9035,-2.8183,-2.8219,-2.8286,-2.8348,-2.8397,-2.8449,-2.8489,-2.8539,-2.8595,-2.8669,-2.8701,-2.8767,-2.8832,-2.8931,-2.8972,-2.9025,-2.9031,-2.9042,-2.9045,-2.9047,-2.9044,-2.8999,-2.9038,-2.9038,-2.9039,-2.9039,-2.9039,0,-2.8201,-2.8247,-2.8303,-2.8381,-2.843,-2.8454,-2.8518,-2.8557,-2.8615,-2.8673,-2.8728,-2.8803,-2.8867,-2.8931,-2.8998,-2.9028,-2.9043,-2.9043,-2.9041,-2.905,-2.9035,-2.9021,-2.903,-2.903,-2.903,-2.903,-2.903,-2.903,-2.8217,-2.8278,-2.8313,-2.84,-2.8446,-2.8511,-2.8545,-2.8594,-2.8641,-2.8723,-2.8776,-2.8817,-2.8879,-2.8951,-2.901,-2.9027,-2.905,-2.9046,-2.9067,-2.9051,-2.9051,-2.9052,-2.9039,-2.9051,-2.9051,-2.9078,-2.9078,-2.9079]},{"header":{"parameterUnit":"m.s-1","parameterCategory":1,"la1":30.2991,"la2":30.254,"lo1":-89.0895,"lo2":-89.0444,"dy":0.0017,"dx":0.0017,"nx":28,"ny":28,"refTime":"2025-06-04T09:00:00:Z","depth":0,"parameterNumber":3,"parameterNumberName":"V-component_of_WINDS"},"data":[0,0,0,0,0,0,0,0,0,0,0,0,0,0,0,0,0,0,0,0,0,0,0,0,0,0,0,0,0,0,0,0,0,0,0,0,0,0,0,0,0,0,0,0,0,0,0,0,0,0,0,0,0,0,0,0,0,0,3.5326,3.5327,0,3.539,3.5391,3.5391,3.5404,3.5404,3.5403,3.5403,3.5463,3.5465,3.5467,0,0,0,0,0,0,0,0,0,0,0,0,0,3.521,3.5213,3.5326,3.5327,3.5328,3.539,3.5391,3.5392,3.5404,3.5404,3.5403,3.5402,3.5463,3.5465,3.5468,0,0,0,0,0,0,0,0,0,0,0,0,0,3.5266,3.5213,3.5326,3.5341,3.5343,3.539,3.5391,3.5392,3.5404,3.5404,3.5403,3.5402,3.5462,3.5465,3.5468,3.5502,0,0,3.5478,3.5479,0,0,0,0,0,0,0,0,3.5263,3.527,3.5338,3.534,3.5343,3.5388,3.5372,3.5429,3.5404,3.5381,3.5403,3.5402,3.5439,3.5444,3.5457,3.5505,3.5507,3.5478,3.548,3.5481,3.5482,0,0,0,0,0,0,0,3.5259,3.5268,3.5351,3.5339,3.5342,3.5344,3.5351,3.5383,3.5413,3.5383,3.5384,3.5392,3.544,3.5454,3.5459,3.5508,3.5478,3.548,3.5482,3.5484,3.5587,3.5588,0,0,0,0,0,0,3.5253,3.5264,3.5349,3.5353,3.53,3.5347,3.5355,3.5374,3.5413,3.5418,3.5392,3.5392,3.5449,3.5455,3.5461,3.5504,3.5481,3.5484,3.5486,3.5586,3.5587,3.5588,0,0,0,0,0,0,3.525,3.526,3.5347,3.5309,3.532,3.5349,3.5372,3.5376,3.5391,3.542,3.5425,3.5402,3.5449,3.5456,3.5492,3.5506,3.5485,3.5488,3.5585,3.5587,3.5588,3.5589,0,0,0,0,0,0,3.5247,3.5259,3.5273,3.5309,3.5322,3.5378,3.5372,3.5378,3.5396,3.5397,3.543,3.5435,3.5449,3.5487,3.5495,3.551,3.5491,3.5584,3.5586,3.5588,3.5588,3.559,3.5592,0,0,0,0,0,3.5243,3.527,3.5274,3.5284,3.5341,3.5379,3.5386,3.5403,3.5397,3.5411,3.543,3.5434,3.5503,3.5491,3.55,3.5516,3.5583,3.5585,3.5587,3.5587,3.559,3.5592,0,0,0,0,0,0,3.5233,3.5275,3.528,3.532,3.5346,3.5381,3.5399,3.5405,3.5432,3.5431,3.5449,3.5457,3.5491,3.5507,3.5493,3.5551,3.5543,3.5547,3.5539,3.5542,3.5545,3.554,3.5493,0,0,0,0,0,3.5236,3.5265,3.5299,3.5331,3.5344,3.5369,3.5386,3.5397,3.5424,3.5435,3.5456,3.5481,3.5509,3.5526,3.5553,3.559,3.5598,3.5605,3.5608,3.5609,3.5612,3.5634,3.5638,3.5595,3.5595,3.5595,0,0,3.5241,3.5267,3.5284,3.5329,3.5351,3.5379,3.5378,3.5408,3.5429,3.5439,3.5475,3.5491,3.552,3.5557,3.5574,3.5571,3.5626,3.5612,3.5613,3.5615,3.5636,3.564,3.5644,3.5596,3.5596,3.5596,0,0,3.5265,3.5288,3.5318,3.534,3.5374,3.539,3.5397,3.5432,3.5444,3.548,3.5489,3.5513,3.556,3.5581,3.5597,3.5631,3.5635,3.5639,3.565,3.5671,3.5674,3.5677,3.5689,3.5694,3.5642,3.5642,3.5642,0,3.5267,3.5312,3.5332,3.5362,3.5382,3.5394,3.5424,3.5443,3.5483,3.5496,3.5492,3.5552,3.5572,3.5614,3.5623,3.5635,3.5644,3.5635,3.5672,3.5676,3.5679,3.5691,3.5695,3.5642,3.5642,3.5642,3.5642,0,3.5313,3.5344,3.5364,3.5404,3.5426,3.5455,3.5478,3.5498,3.5507,3.5524,3.5561,3.5586,3.5618,3.5629,3.5637,3.5672,3.567,3.5669,3.5661,3.5683,3.5694,3.5699,3.5642,3.5642,3.5642,3.5642,0,0,3.5333,3.5385,3.5392,3.5411,3.5449,3.5472,3.5502,3.5536,3.5552,3.5579,3.5604,3.5644,3.5645,3.5663,3.5674,3.5692,3.5718,3.5689,3.569,3.5694,3.5758,3.5759,3.5764,3.5721,3.5722,3.5723,3.5756,0,3.5362,3.5418,3.5437,3.5483,3.5512,3.5524,3.555,3.5576,3.5592,3.5618,3.5636,3.5664,3.5662,3.5674,3.5692,3.5711,3.5731,3.5709,3.5744,3.5745,3.5737,3.577,3.5771,3.5801,3.5761,3.5762,3.5762,0,3.5404,3.5434,3.5483,3.5519,3.5532,3.5555,3.5588,3.5613,3.5642,3.5653,3.5675,3.5684,3.5715,3.5706,3.5749,3.5733,3.5749,3.576,3.5762,3.5766,3.5755,3.5775,3.5811,3.5816,3.5769,3.5769,3.5768,0,3.5414,3.5466,3.5503,3.5519,3.5561,3.5577,3.5595,3.5624,3.5643,3.5671,3.5684,3.5715,3.5731,3.5754,3.5772,3.5764,3.5813,3.5805,3.5822,3.5822,3.5832,3.5831,3.5871,3.5842,3.5842,3.5841,3.5841,0,3.5445,3.5475,3.5508,3.5531,3.5564,3.5585,3.5618,3.5636,3.5662,3.5687,3.5699,3.5722,3.5744,3.577,3.5784,3.5817,3.5824,3.5833,3.5837,3.5833,3.5832,3.5843,3.5841,3.5843,3.5842,3.5842,3.5842,0,3.5462,3.5486,3.5527,3.5564,3.5574,3.5597,3.5629,3.565,3.5668,3.57,3.5709,3.5736,3.5767,3.5787,3.5826,3.5836,3.5872,3.5875,3.5863,3.5865,3.5881,3.5879,3.593,3.5938,3.5903,3.5903,3.5903,0,3.5481,3.5504,3.5545,3.5564,3.5583,3.5612,3.5633,3.5654,3.5675,3.571,3.5728,3.576,3.5788,3.5837,3.5859,3.5889,3.5893,3.5908,3.5897,3.5893,3.5893,3.5892,3.5895,3.591,3.591,3.5911,3.5911,0,3.5511,3.5522,3.5552,3.5587,3.5611,3.5639,3.5666,3.568,3.5706,3.5728,3.5762,3.5783,3.5824,3.5856,3.5889,3.5906,3.5913,3.5914,3.592,3.5916,3.5909,3.5913,3.5869,3.5913,3.5913,3.5913,3.5913,3.5912,3.553,3.5552,3.5584,3.5617,3.5641,3.5666,3.5689,3.571,3.5739,3.5776,3.5786,3.5821,3.5849,3.5894,3.5912,3.5939,3.5936,3.5944,3.5947,3.5948,3.5949,3.5905,3.5944,3.5944,3.5944,3.5944,3.5944,0,3.5561,3.5583,3.5614,3.5653,3.5679,3.5685,3.5716,3.5736,3.5768,3.5795,3.5822,3.586,3.5892,3.5917,3.5949,3.5965,3.5969,3.5973,3.5972,3.5976,3.5949,3.5941,3.597,3.597,3.597,3.597,3.597,3.597,3.5581,3.5619,3.5634,3.5683,3.5704,3.574,3.5757,3.5781,3.5802,3.5845,3.5872,3.5889,3.5915,3.595,3.5979,3.5985,3.5996,3.6,3.6007,3.5981,3.5978,3.5975,3.5968,3.6002,3.6002,3.6032,3.6032,3.6033]}]]